Skip Page Navigation
NASA JPL Caltech
NASA Logo - Jet Propulsion Laboratory + View the NASA Portal
+ Near-Earth Object (NEO) Program
Search JPL
JPL Home Earth Solar System Stars & Galaxies Technology
JPL Solar System Dynamics
BODIES ORBITS EPHEMERIDES TOOLS PHYSICAL DATA DISCOVERY FAQ SITE MAP
JPL Small-Body Database Browser
Search: [ help ]  
10251 Mulisch (3089 T-1)
Classification: Main-belt Asteroid          SPK-ID: 2010251
Ephemeris | Orbit Diagram | Orbital Elements | Physical Parameters | Discovery Circumstances | Close-Approach Data ]

[ show orbit diagram ]
Orbital Elements at Epoch 2457000.5 (2014-Dec-09.0) TDB
Reference: JPL 12 (heliocentric ecliptic J2000)
 Element Value Uncertainty (1-sigma)   Units 
e .08688569743935605 6.0977e-08  
a 2.332983234464067 1.366e-08 AU
q 2.130280359023332 1.3919e-07 AU
i 2.063988541649343 7.456e-06 deg
node 251.0341480960865 0.00014913 deg
peri 204.9803905574844 0.00015518 deg
M 175.9757005068859 4.179e-05 deg
tp 2456364.267198835559
(2013-Mar-12.76719884)
0.00015056 JED
period 1301.564976070297
3.56
1.1431e-05
3.13e-08
d
yr
n .2765901100741947 2.4292e-09 deg/d
Q 2.535686109904802 1.4846e-08 AU
  Orbit Determination Parameters
   # obs. used (total)      634  
   data-arc span      15802 days (43.26 yr)  
   first obs. used      1971-03-24  
   last obs. used      2014-06-28  
   planetary ephem.      DE431  
   SB-pert. ephem.      SB431-BIG16  
   condition code      0  
   fit RMS      .56539  
   data source      ORB  
   producer      Otto Matic  
   solution date      2014-Oct-09 14:17:29  

Additional Information
 Earth MOID = 1.14705 AU 
 T_jup = 3.564 
[ show covariance matrix ]

Ephemeris | Orbit Diagram | Orbital Elements | Physical Parameters | Discovery Circumstances | Close-Approach Data ]

Physical Parameter Table
Parameter Symbol Value Units Sigma Reference Notes
absolute magnitude H 15.0 mag n/a MPO259415  

10251 Mulisch           Discovered 1971 Mar. 26 by C. J. van Houten and I. van Houten-Groeneveld on Palomar Schmidt plates taken by T. Gehrels.
Harry Mulisch (b. 1927) is one of the great post-war Dutch writers. He has written novels, plays, essays, poems and philosophical reflections. The Discovery of Heaven (1992) is his magnum opus.
NOTE: some special characters may not display properly (any characters within {} are an attempt to place the proper accent above a character)
Reference: 20060613/MPCPages.arcLast Updated: 2008-05-22

[ show close-approach data ]
Alternate Designations
 3089 T-1 = 1980 WX1 = 1997 ML10 
Ephemeris | Orbit Diagram | Orbital Elements | Physical Parameters | Discovery Circumstances | Close-Approach Data ]
ABOUT SSD CREDITS/AWARDS PRIVACY/COPYRIGHT GLOSSARY LINKS
FirstGov 2014-Oct-20 04:24 UT
(server date/time)  
NASA Home Page
Site Manager:   Donald K. Yeomans
Webmaster  Alan B. Chamberlin